Melbourne Airport, Victoria

8:42 AM AEDT on February 07, 2016 (GMT +1100)
Melbourne International

Weather History for YMML - June, 2013

Change the Weather History Date:

Monday, June 24, 2013

  Actual Average Record
Temperature  
Mean Temperature 42 °F -  
Max Temperature 51 °F 53 °F 62 °F (2011)
Min Temperature 32 °F 41 °F 32 °F (2013)
Degree Days  
Heating Degree Days 24    
Moisture  
Dew Point 40 °F    
Average Humidity 93    
Maximum Humidity 100    
Minimum Humidity 72    
Precipitation  
Precipitation 0.00 in 0.05 in - ()
Sea Level Pressure  
Sea Level Pressure 30.35 in    
Wind  
Wind Speed 6 mph ()    
Max Wind Speed 9 mph    
Max Gust Speed -    
Visibility 4.8 miles    
Events Fog    
Averages and records for this station are not official NWS values.
T = Trace of Precipitation, MM = Missing Value Source: Averaged Metar Reports

Daily Weather History Graph

Daily Weather History Graph

Search for Another Location

Airport or City:

Trip Planner

Search our weather history database for the weather conditions in past years. The results will help you decide how hot, cold, wet, or windy it might be!

Date:

Astronomy

Jun. 24, 2013 Rise Set
Actual Time 7:36 AM AEST 5:09 PM AEST
Civil Twilight 7:06 AM AEST 5:39 PM AEST
Nautical Twilight 6:34 AM AEST 6:12 PM AEST
Astronomical Twilight 6:02 AM AEST 6:44 PM AEST
Moon 6:17 PM AEST (6/24) 7:49 AM AEST (6/24)
Length of Visible Light 10h 32m
Length of Day
9h 33m
Waxing Gibbous, 99% of the Moon is Illuminated
Jun 24
Waxing Gibbous
Jun 30
Last Quarter
Jul 8
New
Jul 16
First Quarter
Jul 23
Full

Hourly Weather History & Observations

Time (AEST) Temp. Windchill Dew Point Humidity Pressure Visibility Wind Dir Wind Speed Gust Speed Precip Events Conditions
12:00 AM 38 °F - 36 °F 90% 30.42 in 11 mi North 6.9 mph - -   Haze
12:00 AM 39.2 °F 34.2 °F 35.6 °F 87% 30.39 in 6.2 mi North 6.9 mph - N/A   Partly Cloudy
12:30 AM 35.6 °F 30.7 °F 33.8 °F 93% 30.39 in 6.2 mi NNW 5.8 mph - N/A   Partly Cloudy
1:00 AM 39 °F - 37 °F 91% 30.39 in - NW 6.9 mph - -  
1:00 AM 39.2 °F 34.2 °F 37.4 °F 93% 30.36 in - NW 6.9 mph - N/A   Clear
1:30 AM 35.6 °F 28.6 °F 33.8 °F 93% 30.36 in - North 9.2 mph - N/A   Clear
2:00 AM 37.4 °F 32.8 °F 35.6 °F 93% 30.36 in - North 5.8 mph - N/A   Clear
2:30 AM 35.6 °F 30.7 °F 35.6 °F 100% 30.36 in - North 5.8 mph - N/A   Clear
3:00 AM 35 °F - 34 °F 93% 30.39 in 9 mi North 6.9 mph - -   Haze
3:00 AM 35.6 °F 29.9 °F 33.8 °F 93% 30.36 in - North 6.9 mph - N/A   Clear
3:30 AM 35.6 °F 29.2 °F 33.8 °F 93% 30.36 in - North 8.1 mph - N/A   Clear
4:00 AM 35 °F - 34 °F 94% 30.38 in - North 6.9 mph - -  
4:00 AM 35.6 °F 29.9 °F 33.8 °F 93% 30.36 in - North 6.9 mph - N/A   Clear
4:30 AM 35.6 °F 29.9 °F 33.8 °F 93% 30.36 in - North 6.9 mph - N/A   Clear
5:00 AM 33.8 °F 28.6 °F 33.8 °F 100% 30.36 in - North 5.8 mph - N/A   Clear
5:30 AM 33.8 °F 28.6 °F 32.0 °F 93% 30.36 in - North 5.8 mph - N/A   Clear
6:00 AM 34 °F - 33 °F 95% 30.39 in 9 mi North 9.2 mph - -   Haze
6:00 AM 33.8 °F 26.4 °F 33.8 °F 100% 30.36 in - North 9.2 mph - N/A   Clear
6:30 AM 35.6 °F 31.7 °F 33.8 °F 93% 30.36 in 6.2 mi NW 4.6 mph - N/A   Mostly Cloudy
7:00 AM 34 °F - 32 °F 89% 30.39 in - North 6.9 mph - -  
7:00 AM 33.8 °F 27.7 °F 32.0 °F 93% 30.36 in 6.2 mi North 6.9 mph - N/A   Mostly Cloudy
7:12 AM 35.6 °F 29.9 °F 35.6 °F 100% 30.39 in 6.2 mi NNW 6.9 mph - N/A   Mostly Cloudy
7:22 AM 35.6 °F 29.2 °F 33.8 °F 93% 30.36 in 0.2 mi West 8.1 mph - N/A Fog Fog
7:30 AM 35.6 °F 29.2 °F 35.6 °F 100% 30.39 in 0.1 mi West 8.1 mph - N/A Fog Fog
8:00 AM 37.4 °F 31.4 °F 35.6 °F 93% 30.39 in 0.1 mi West 8.1 mph - N/A Fog Fog
8:30 AM 39.2 °F 34.2 °F 39.2 °F 100% 30.36 in 0.1 mi WNW 6.9 mph - N/A Fog Fog
9:00 AM 40 °F - 40 °F 100% 30.39 in 0 mi WNW 6.9 mph - - Fog Heavy Fog
9:00 AM 41.0 °F 36.4 °F 41.0 °F 100% 30.36 in 0.1 mi WNW 6.9 mph - N/A Fog Fog
9:30 AM 41.0 °F 37.1 °F 41.0 °F 100% 30.39 in 0.1 mi West 5.8 mph - N/A Fog Fog
9:47 AM 41.0 °F 35.8 °F 41.0 °F 100% 30.39 in 0.2 mi West 8.1 mph - N/A Fog Fog
10:00 AM 42 °F - 42 °F 99% 30.40 in - West 8.1 mph - -  
10:00 AM 41.0 °F 35.8 °F 41.0 °F 100% 30.39 in 0.3 mi West 8.1 mph - N/A Fog Fog
10:30 AM 42.8 °F 38.6 °F 42.8 °F 100% 30.39 in 0.4 mi West 6.9 mph - N/A Fog Fog
11:00 AM 42.8 °F 39.3 °F 42.8 °F 100% 30.39 in 0.9 mi West 5.8 mph - N/A   Overcast
11:30 AM 42.8 °F 40.1 °F 42.8 °F 100% 30.39 in 2.5 mi WSW 4.6 mph - N/A   Overcast
12:00 PM 44 °F - 43 °F 97% 30.38 in 3 mi WSW 4.6 mph - -   Mist
12:00 PM 44.6 °F 42.2 °F 42.8 °F 93% 30.36 in 3.1 mi WSW 4.6 mph - N/A   Mostly Cloudy
12:30 PM 44.6 °F 41.4 °F 44.6 °F 100% 30.36 in 3.1 mi West 5.8 mph - N/A   Mostly Cloudy
1:00 PM 46 °F - 44 °F 90% 30.36 in - Calm Calm - -  
1:00 PM 46.4 °F - 44.6 °F 93% 30.33 in 3.7 mi Calm Calm - N/A   Mostly Cloudy
1:30 PM 48.2 °F - 44.6 °F 87% 30.33 in 5.0 mi Calm Calm - N/A   Mostly Cloudy
1:44 PM 48.2 °F - 44.6 °F 87% 30.33 in 5.6 mi West 4.6 mph - N/A   Mostly Cloudy
2:00 PM 48.2 °F - 44.6 °F 87% 30.33 in 6.2 mi WSW 5.8 mph - N/A   Mostly Cloudy
2:30 PM 50.0 °F - 44.6 °F 82% 30.33 in 6.2 mi SSW 5.8 mph - N/A   Mostly Cloudy
3:00 PM 51 °F - 45 °F 72% 30.33 in 9 mi SW 5.8 mph - -   Haze
3:00 PM 50.0 °F - 44.6 °F 82% 30.30 in 6.2 mi SW 5.8 mph - N/A   Mostly Cloudy
3:30 PM 51.8 °F - 46.4 °F 82% 30.30 in 6.2 mi WSW 4.6 mph - N/A   Mostly Cloudy
4:00 PM 51 °F - 45 °F 73% 30.32 in - SSW 3.5 mph - -  
4:00 PM 50.0 °F - 44.6 °F 82% 30.30 in 6.2 mi SSW 3.5 mph - N/A   Mostly Cloudy
4:30 PM 50.0 °F - 46.4 °F 87% 30.30 in 6.2 mi SW 4.6 mph - N/A   Mostly Cloudy
5:00 PM 46.4 °F 43.5 °F 44.6 °F 93% 30.30 in 6.2 mi WSW 5.8 mph - N/A   Mostly Cloudy
5:30 PM 46.4 °F 43.5 °F 44.6 °F 93% 30.30 in 6.2 mi WSW 5.8 mph - N/A   Mostly Cloudy
6:00 PM 44 °F - 43 °F 95% 30.32 in 7 mi West 6.9 mph - -   Haze
6:00 PM 44.6 °F 40.7 °F 42.8 °F 93% 30.30 in 6.2 mi West 6.9 mph - N/A   Mostly Cloudy
6:30 PM 46.4 °F 42.9 °F 44.6 °F 93% 30.30 in 5.6 mi WSW 6.9 mph - N/A   Unknown
7:00 PM 46 °F - 44 °F 90% 30.34 in - West 8.1 mph - -  
7:00 PM 46.4 °F 42.4 °F 44.6 °F 93% 30.33 in - West 8.1 mph - N/A   Clear
7:30 PM 44.6 °F 40.7 °F 42.8 °F 93% 30.33 in 5.6 mi West 6.9 mph - N/A   Mostly Cloudy
8:00 PM 44.6 °F 41.4 °F 42.8 °F 93% 30.33 in 5.6 mi WSW 5.8 mph - N/A   Mostly Cloudy
8:30 PM 44.6 °F 40.7 °F 42.8 °F 93% 30.33 in 5.6 mi WSW 6.9 mph - N/A   Mostly Cloudy
9:00 PM 46 °F - 45 °F 95% 30.33 in 11 mi SW 6.9 mph - -   Haze
9:00 PM 46.4 °F 42.9 °F 44.6 °F 93% 30.30 in 6.2 mi SW 6.9 mph - N/A   Mostly Cloudy
9:30 PM 44.6 °F 40.2 °F 44.6 °F 100% 30.30 in 6.2 mi SSW 8.1 mph - N/A   Scattered Clouds
10:00 PM 45 °F - 44 °F 94% 30.34 in - SW 5.8 mph - -  
10:00 PM 44.6 °F 41.4 °F 44.6 °F 100% 30.33 in 6.2 mi SW 5.8 mph - N/A   Scattered Clouds
10:30 PM 44.6 °F 40.7 °F 42.8 °F 93% 30.30 in 6.2 mi SSW 6.9 mph - N/A   Mostly Cloudy
11:00 PM 42.8 °F 38.6 °F 41.0 °F 93% 30.30 in 6.2 mi WSW 6.9 mph - N/A   Mostly Cloudy
11:30 PM 42.8 °F 39.3 °F 41.0 °F 93% 30.30 in 6.2 mi West 5.8 mph - N/A   Mostly Cloudy